Showing default

TIANQI 33, 62365

Orbit data source: Space-Track

TIANQI 33, 62365 is a payload satellite owned by Guodian Gaokeji (CN) in LEO that was launched on Thu, 19 Dec 2024 UTC via a GUSHENXING 1 launch vehicle from the Yellow Sea Launch Area, China (YSLA). Payload-class satellites include a variety of spacecraft equipped with specific instruments for various scientific and technological missions. These include communications satellites like Starlink; space stations such as the ISS; scientific satellites like the Hubble; Earth observation satellites from companies like Planet Labs, Umbra, and HawkEye 360; GPS; miniature CubeSats for education and research; and military/defense satellites.

Loading next visibility...
Identifier
62365, 2024-245A
Orbit
LEO
Country
Flag of CNCN / PRC
Related business
Manufacturer
Shanghai ASES
Mission
Operational Commercial Communications
Bus & Motor
STARLIGHTB, Unknown motor
Mass
40 kg wet, ~40 kg dry
Launch date (UTC)
2024-12-19 (2 years ago)
Launch vehicle
GUSHENXING 1
Launch site
Yellow Sea Launch Area, China (YSLA)
Object type
Payload
Rocket body
Debris
Shape & HBR
Box, 0.3 m
Radar Cross Section
0.195 m², Medium (>0.1 m² and < 1m²)

Expand to show TLE details & history
Last TLE update: 9 hours ago

TLE from 9 hours ago
0 TIANQI 33
1 62365U 24245A   26171.44946955  .00000034  00000-0  11115-3 0  9991
2 62365  44.9846 307.5162 0006783  31.1721 328.9513 13.99210219 76812
Epoch: 2026-06-20T10:47Z
TLE epoch observation values (Epoch: 2026-06-20T10:47:14.169Z)
Latitude
Longitude
-122.95677°
Altitude
892.302 km
Speed
7.41 km/s
True Right ascension
20h 30m 03s
True Declination
0° 00' 00"
Sunlit
Object was in full shadow at epoch
Visualization orbit readout
Latitude
Unknown
Longitude
Unknown
Altitude
Unknown
Speed
Unknown
Apparent Right ascension
Unknown
Apparent Declination
Unknown
Sunlit
N/A
Visualization observer readout
Local Sidereal Time
07:11:54
Azimuth
Unknown
Elevation
Unknown
Doppler factor
Unknown
Orbital elements
Apogee altitude
902.987 km
Perigee altitude
893.117 km
Semi-major axis
7,276.189 km
Eccentricity
0.00068
Inclination
44.9846°
RAAN
307.5162°
Arg. of periapsis
31.1721°
True anomaly
328.91118°
Mean anomaly
328.9513°
Eccentric anomaly
328.93124°
Mean motion
3.49693 °/min
Orbital period
102.95 mins
BSTAR
0.00011115
Loading maneuver chart data...
Computing Atmospheric mass density...
Loading historical data...
Loading historical data...
Loading historical data...
Loading historical data...
Loading historical data...
Loading historical data...
Loading historical data...
Other satellites on launch #245 in the year 2024 (2024-12-19 UTC)

Documentation

Showing up to 5 results
|